Find Starlink 3568

NORAD ID: 51856 Int'l Des: 2022-022 Owner: SPXS Country: US Constellation: starlink operational
LEOCIRCULAR

Live-Position

3D-Globus wird geladen...

Über Starlink 3568

Beschreibung wird geladen...

Nächste Überflüge

Passes for default location (London). Set your location on the main map for personalized predictions.

Höhenverlauf

Loading altitude history...

Zweizeiliger Elementsatz

1 51856U 22022E 26127.27003170 -.00000216 00000-0 44828-5 0 9992
2 51856 53.2159 116.1537 0001202 76.7554 283.3572 15.08833006231892
Epoch: 7. Mai 2026 • Age: 11 hours

Aktueller Status

Höhe 556.9 km
Geschwindigkeit 7.58 km/s
Subsatellitenpunkt -47.71°S, 133.21°W
Startdatum 3. März 2022
Alter 4.1 years
Typ internet

Technische Details

Klassifizierung Payload
Masse 297.00 kg
Trockenmasse 275.00 kg
Gesamtmasse 297.00 kg
Länge 0.20 m
Durchmesser 2.80 m
Spannweite 9.00 m
Form Box + pan
Hersteller SPXS
Bus-Typ Starlink
Phasenstatus In Orbit
Besitzer/Staat SPXS/US

Most Searched